Port Saint Joe - Mexico Beach Weather Center

Moon Phase Calendar



Online Cameras

 


      

Current Conditions in Port Saint Joe
8/15/2022 11:03:43 PM

80°F
Feels Like 80
Clear
Humidity
68%
Pressure
29.88"
Wind
7 mph (SW)
Dew Point
68°F
UV Index
0/10 (Low)
Visibility
6 mi

Hourly Forecast

Date & Time Mon, Aug 15
11:00 PM
Tue, Aug 16
12:00 AM
Tue, Aug 16
1:00 AM
Tue, Aug 16
2:00 AM
Tue, Aug 16
3:00 AM
Tue, Aug 16
4:00 AM
Tue, Aug 16
5:00 AM
Tue, Aug 16
6:00 AM
Tue, Aug 16
7:00 AM
Tue, Aug 16
8:00 AM
Tue, Aug 16
9:00 AM
Tue, Aug 16
10:00 AM
Tue, Aug 16
11:00 AM
Tue, Aug 16
12:00 PM
Tue, Aug 16
1:00 PM
Tue, Aug 16
2:00 PM
Tue, Aug 16
3:00 PM
Tue, Aug 16
4:00 PM
Tue, Aug 16
5:00 PM
Tue, Aug 16
6:00 PM
Tue, Aug 16
7:00 PM
Tue, Aug 16
8:00 PM
Tue, Aug 16
9:00 PM
Tue, Aug 16
10:00 PM
Tue, Aug 16
11:00 PM
Wed, Aug 17
12:00 AM
Wed, Aug 17
1:00 AM
Wed, Aug 17
2:00 AM
Wed, Aug 17
3:00 AM
Wed, Aug 17
4:00 AM
Wed, Aug 17
5:00 AM
Wed, Aug 17
6:00 AM
Wed, Aug 17
7:00 AM
Wed, Aug 17
8:00 AM
Wed, Aug 17
9:00 AM
Wed, Aug 17
10:00 AM
Wed, Aug 17
11:00 AM
Wed, Aug 17
12:00 PM
Wed, Aug 17
1:00 PM
Wed, Aug 17
2:00 PM
Wed, Aug 17
3:00 PM
Wed, Aug 17
4:00 PM
Wed, Aug 17
5:00 PM
Wed, Aug 17
6:00 PM
Wed, Aug 17
7:00 PM
Wed, Aug 17
8:00 PM
Wed, Aug 17
9:00 PM
Wed, Aug 17
10:00 PM
Condition
Clear

Clear

Clouds

Rain

Rain

Clouds

Clouds

Clouds

Rain

Rain

Rain

Rain

Rain

Rain

Clouds

Clouds

Clouds

Clouds

Clouds

Clouds

Clouds

Clouds

Rain

Rain

Rain

Clouds

Rain

Rain

Rain

Clouds

Rain

Rain

Rain

Rain

Clouds

Clouds

Clouds

Clouds

Clouds

Clouds

Clouds

Clouds

Clouds

Clouds

Clouds

Clouds

Clear

Clear
Temperature 80°F80°F81°F81°F81°F82°F82°F81°F81°F81°F83°F85°F86°F87°F88°F89°F89°F89°F88°F87°F86°F85°F84°F84°F84°F84°F84°F84°F84°F84°F84°F84°F83°F83°F84°F86°F88°F89°F91°F91°F91°F91°F90°F89°F88°F86°F85°F84°F
Feels Like 80°F84°F85°F85°F86°F87°F87°F87°F86°F86°F90°F92°F94°F96°F97°F96°F96°F96°F96°F97°F96°F95°F93°F94°F93°F94°F93°F93°F93°F94°F92°F93°F92°F91°F91°F92°F92°F93°F94°F95°F96°F96°F97°F98°F97°F96°F95°F94°F
Cloudiness 10%10%12%18%42%42%48%46%49%55%100%100%95%87%80%77%29%25%23%25%29%34%33%55%70%77%82%85%100%100%100%100%100%100%100%100%100%100%94%87%48%41%35%33%35%30%2%4%
Visibility 6 mi6 mi6 mi6 mi6 mi6 mi6 mi6 mi6 mi6 mi6 mi6 mi6 mi6 mi6 mi6 mi6 mi6 mi6 mi6 mi6 mi6 mi6 mi6 mi6 mi6 mi6 mi6 mi6 mi6 mi6 mi6 mi6 mi6 mi6 mi6 mi6 mi6 mi6 mi6 mi6 mi6 mi6 mi6 mi6 mi6 mi6 mi6 mi
Precipitation 0%0%9%22%36%40%40%32%40%47%49%49%69%82%80%70%32%33%33%24%24%31%51%63%63%61%60%60%36%44%53%77%70%67%16%25%26%25%25%18%27%31%31%30%22%14%3%21%
Humidity 68%69%70%71%75%77%77%77%79%79%75%70%67%65%62%59%57%58%62%66%70%75%77%77%77%78%77%76%76%78%78%79%79%78%71%61%53%48%46%47%49%51%56%61%65%74%78%78%
Dew Point 68°F69°F70°F71°F72°F74°F74°F74°F73°F74°F74°F74°F74°F74°F73°F72°F72°F72°F73°F74°F75°F76°F76°F76°F76°F76°F76°F76°F76°F77°F76°F76°F76°F75°F74°F71°F68°F67°F66°F67°F68°F69°F71°F73°F74°F76°F77°F77°F
Pressure 29.88"29.88"29.88"29.88"29.88"29.88"29.85"29.85"29.88"29.91"29.91"29.91"29.94"29.94"29.91"29.91"29.88"29.88"29.85"29.85"29.85"29.85"29.88"29.88"29.88"29.88"29.88"29.88"29.85"29.85"29.85"29.88"29.88"29.91"29.94"29.94"29.94"29.94"29.94"29.91"29.91"29.88"29.88"29.88"29.88"29.88"29.88"29.88"
Wind Speed 7 mph6.4 mph7.2 mph6.7 mph6.4 mph6.4 mph6.7 mph7.1 mph6.7 mph7.4 mph8 mph9.7 mph10.6 mph11.2 mph11.2 mph11.2 mph11.6 mph13 mph13.1 mph11.9 mph10.7 mph10.3 mph9.1 mph8.6 mph8 mph8.8 mph9.2 mph9.3 mph10.1 mph10.4 mph10.4 mph9.5 mph8.2 mph6.6 mph6.2 mph6.6 mph6.7 mph7.2 mph8.6 mph10 mph10.1 mph10.5 mph11.2 mph10.8 mph10.7 mph10.2 mph10.5 mph9.7 mph
Wind
Direction
215°
SW
252°
WSW
260°
W
258°
WSW
259°
W
258°
WSW
253°
WSW
240°
WSW
262°
W
271°
W
264°
W
264°
W
272°
W
274°
W
273°
W
272°
W
267°
W
265°
W
262°
W
259°
W
256°
WSW
257°
WSW
253°
WSW
250°
WSW
245°
WSW
241°
WSW
246°
WSW
249°
WSW
252°
WSW
255°
WSW
263°
W
274°
W
291°
WNW
309°
NW
313°
NW
307°
NW
295°
WNW
287°
WNW
275°
W
272°
W
266°
W
261°
W
260°
W
257°
WSW
252°
WSW
244°
WSW
251°
WSW
246°
WSW

Daily Forecast

Date High Low Precip. Humidity
Today
Aug 15

Clear
89 °F
78 °F
10%
53%
Tuesday
Aug 16

Rain
89 °F
80 °F
82%
62%
Wednesday
Aug 17

Rain
91 °F
83 °F
77%
46%
Thursday
Aug 18

Rain
86 °F
80 °F
92%
61%
Friday
Aug 19

Rain
88 °F
80 °F
76%
58%
Saturday
Aug 20

Rain
88 °F
77 °F
61%
59%
Sunday
Aug 21

Clouds
89 °F
79 °F
17%
57%
Monday
Aug 22

Clouds
89 °F
79 °F
10%
54%
Tuesday
Aug 23

Clouds
89 °F
79 °F
14%
55%
Wednesday
Aug 24

Rain
89 °F
77 °F
30%
55%
Thursday
Aug 25

Rain
89 °F
79 °F
28%
56%
Friday
Aug 26

Rain
90 °F
80 °F
30%
54%
Saturday
Aug 27

Clouds
89 °F
80 °F
26%
55%
Sunday
Aug 28

Rain
89 °F
81 °F
29%
57%
Monday
Aug 29

Rain
88 °F
79 °F
48%
59%
Tuesday
Aug 30

Rain
88 °F
76 °F
62%
58%

Temperature 8-14 Day Outlook



Precipitation 8-14 Day Outlook




Quick Links
Port Saint Joe - Mexico Beach News
Port Saint Joe - Mexico Beach Photos
Port Saint Joe - Mexico Beach Videos




About Us
Contact Us
Site Map
Search Site
Advertise With Us
   
PortSaintJoe.USGulf.info
THE PORT SAINT JOE - MEXICO BEACH WEBSITE

Copyright 2022, Coastal Town
Privacy    |    Legal